FLX9911 SBJV-SBPK

Flight info

Callsign FLX9911
Flight time 1h 3m
Altitude 28000
Route PONLU DCT PTS
Aircraft B738/M-SDE2E3FGHIRWXY/LB1

Departure

Time 2026-04-20 20:00
Airport Lauro Carneiro de Loyola Airport (SBJV)

Arrival

Time 2026-04-20 21:04
Airport João Simões Lopes Neto International Airport (SBPK)
Time Latitude Longitude Altitude Speed Heading
2026-04-20 19:43 -26.22397 -48.80104 24 ft 0 kts 218°
2026-04-20 19:54 -26.22396 -48.80104 22 ft 1 kts 218°
2026-04-20 19:54 -26.22377 -48.80088 26 ft 4 kts 212°
2026-04-20 19:54 -26.22353 -48.80074 24 ft 4 kts 198°
2026-04-20 19:55 -26.22328 -48.80070 25 ft 4 kts 158°
2026-04-20 19:55 -26.22318 -48.80077 26 ft 0 kts 128°
2026-04-20 19:57 -26.22322 -48.80071 26 ft 2 kts 128°
2026-04-20 19:57 -26.22331 -48.80053 26 ft 4 kts 103°
2026-04-20 19:58 -26.22323 -48.80024 24 ft 4 kts 54°
2026-04-20 19:58 -26.22299 -48.80001 24 ft 4 kts 34°
2026-04-20 19:58 -26.22263 -48.79998 27 ft 7 kts 341°
2026-04-20 19:58 -26.22210 -48.80063 25 ft 15 kts 309°
2026-04-20 19:59 -26.22127 -48.80177 25 ft 22 kts 309°
2026-04-20 19:59 -26.22033 -48.80324 22 ft 17 kts 279°
2026-04-20 19:59 -26.22008 -48.80367 22 ft 1 kts 34°
2026-04-20 19:59 -26.22009 -48.80350 25 ft 4 kts 103°
2026-04-20 20:00 -26.22053 -48.80279 26 ft 33 kts 129°
2026-04-20 20:00 -26.22388 -48.79815 24 ft 120 kts 129°
2026-04-20 20:00 -26.23061 -48.78878 186 ft 180 kts 128°
2026-04-20 20:00 -26.23902 -48.77724 894 ft 200 kts 128°
2026-04-20 20:01 -26.24812 -48.76542 1885 ft 201 kts 131°
2026-04-20 20:01 -26.25767 -48.75466 3050 ft 189 kts 137°
2026-04-20 20:01 -26.26734 -48.74535 4115 ft 180 kts 142°
2026-04-20 20:01 -26.27748 -48.73691 4945 ft 185 kts 146°
2026-04-20 20:02 -26.28845 -48.72894 5680 ft 192 kts 148°
2026-04-20 20:02 -26.29991 -48.72150 6573 ft 188 kts 151°
2026-04-20 20:02 -26.31111 -48.71492 7444 ft 169 kts 153°
2026-04-20 20:02 -26.32171 -48.70910 7249 ft 186 kts 154°
2026-04-20 20:03 -26.33550 -48.70174 6626 ft 248 kts 154°
2026-04-20 20:03 -26.35030 -48.69405 7833 ft 206 kts 156°
2026-04-20 20:03 -26.36487 -48.68989 8285 ft 230 kts 182°
2026-04-20 20:03 -26.38069 -48.69596 8477 ft 260 kts 218°
2026-04-20 20:04 -26.39148 -48.71307 8864 ft 284 kts 252°
2026-04-20 20:04 -26.39333 -48.73532 9635 ft 292 kts 268°
2026-04-20 20:04 -26.39382 -48.75037 10169 ft 295 kts 263°
2026-04-20 20:04 -26.39712 -48.77355 10561 ft 314 kts 255°
2026-04-20 20:05 -26.40373 -48.79778 10748 ft 338 kts 248°
2026-04-20 20:05 -26.41309 -48.82272 10911 ft 360 kts 244°
2026-04-20 20:05 -26.42459 -48.84838 11152 ft 377 kts 240°
2026-04-20 20:05 -26.43732 -48.87418 11661 ft 383 kts 239°
2026-04-20 20:06 -26.45067 -48.90008 12313 ft 386 kts 239°
2026-04-20 20:06 -26.46427 -48.92604 12960 ft 389 kts 238°
2026-04-20 20:06 -26.47803 -48.95223 13566 ft 393 kts 238°
2026-04-20 20:06 -26.49172 -48.97835 14109 ft 397 kts 239°
2026-04-20 20:07 -26.50583 -49.00535 14667 ft 400 kts 239°
2026-04-20 20:07 -26.52119 -49.03080 15222 ft 401 kts 230°
2026-04-20 20:07 -26.54119 -49.05308 15788 ft 403 kts 219°
2026-04-20 20:07 -26.56397 -49.07076 16332 ft 406 kts 210°
2026-04-20 20:08 -26.58877 -49.08617 16842 ft 409 kts 210°
2026-04-20 20:08 -26.61384 -49.10182 17339 ft 412 kts 210°
2026-04-20 20:08 -26.63897 -49.11762 17842 ft 416 kts 210°
2026-04-20 20:08 -26.66424 -49.13362 18324 ft 419 kts 210°
2026-04-20 20:09 -26.68974 -49.14983 18750 ft 422 kts 210°
2026-04-20 20:09 -26.71533 -49.16615 19170 ft 425 kts 211°
2026-04-20 20:09 -26.74113 -49.18263 19594 ft 428 kts 211°
2026-04-20 20:09 -26.76706 -49.19923 19994 ft 431 kts 211°
2026-04-20 20:10 -26.79318 -49.21595 20397 ft 434 kts 211°
2026-04-20 20:10 -26.81949 -49.23280 20787 ft 437 kts 211°
2026-04-20 20:10 -26.84602 -49.24981 21164 ft 440 kts 211°
2026-04-20 20:10 -26.87231 -49.26667 21542 ft 443 kts 211°
2026-04-20 20:11 -26.89911 -49.28386 21919 ft 445 kts 211°
2026-04-20 20:11 -26.92609 -49.30118 22271 ft 448 kts 211°
2026-04-20 20:11 -26.95356 -49.31883 22622 ft 451 kts 211°
2026-04-20 20:11 -26.98052 -49.33615 22977 ft 453 kts 211°
2026-04-20 20:12 -27.00797 -49.35380 23323 ft 456 kts 211°
2026-04-20 20:12 -27.03552 -49.37153 23649 ft 458 kts 211°
2026-04-20 20:12 -27.06327 -49.38939 23913 ft 461 kts 211°
2026-04-20 20:13 -27.11908 -49.42534 24514 ft 463 kts 211°
2026-04-20 20:13 -27.14703 -49.44337 24796 ft 465 kts 211°
2026-04-20 20:13 -27.17516 -49.46152 25065 ft 466 kts 211°
2026-04-20 20:13 -27.20334 -49.47971 25342 ft 468 kts 211°
2026-04-20 20:14 -27.23160 -49.49796 25600 ft 469 kts 211°
2026-04-20 20:14 -27.25996 -49.51629 25847 ft 471 kts 211°
2026-04-20 20:14 -27.28841 -49.53469 26109 ft 472 kts 211°
2026-04-20 20:14 -27.31690 -49.55313 26365 ft 473 kts 211°
2026-04-20 20:15 -27.34544 -49.57162 26615 ft 474 kts 211°
2026-04-20 20:15 -27.37411 -49.59019 26858 ft 476 kts 211°
2026-04-20 20:15 -27.40278 -49.60877 27148 ft 476 kts 211°
2026-04-20 20:15 -27.43143 -49.62735 27487 ft 475 kts 211°
2026-04-20 20:16 -27.46001 -49.64590 27864 ft 473 kts 211°
2026-04-20 20:16 -27.48854 -49.66443 28038 ft 474 kts 211°
2026-04-20 20:16 -27.54569 -49.70158 28042 ft 472 kts 211°
2026-04-20 20:17 -27.60254 -49.73858 28063 ft 471 kts 211°
2026-04-20 20:17 -27.65893 -49.77533 28051 ft 471 kts 211°
2026-04-20 20:18 -27.71558 -49.81229 28061 ft 470 kts 211°
2026-04-20 20:18 -27.77231 -49.84935 28062 ft 471 kts 212°
2026-04-20 20:19 -27.82906 -49.88647 28066 ft 471 kts 212°
2026-04-20 20:19 -27.88580 -49.92363 28059 ft 471 kts 212°
2026-04-20 20:20 -27.94254 -49.96082 28059 ft 472 kts 212°
2026-04-20 20:20 -27.99931 -49.99808 28058 ft 472 kts 212°
2026-04-20 20:21 -28.05606 -50.03539 28050 ft 472 kts 212°
2026-04-20 20:21 -28.11251 -50.07253 28057 ft 472 kts 212°
2026-04-20 20:22 -28.16923 -50.10991 28051 ft 472 kts 212°
2026-04-20 20:22 -28.22596 -50.14733 28044 ft 472 kts 212°
2026-04-20 20:23 -28.28276 -50.18484 28043 ft 472 kts 212°
2026-04-20 20:23 -28.33956 -50.22240 28045 ft 471 kts 212°
2026-04-20 20:24 -28.39623 -50.25992 28032 ft 471 kts 212°
2026-04-20 20:24 -28.45271 -50.29737 28036 ft 471 kts 212°
2026-04-20 20:25 -28.50932 -50.33495 28031 ft 470 kts 212°
2026-04-20 20:25 -28.56580 -50.37249 28023 ft 470 kts 213°
2026-04-20 20:26 -28.62225 -50.41006 28014 ft 470 kts 213°
2026-04-20 20:26 -28.67865 -50.44764 28020 ft 470 kts 213°
2026-04-20 20:27 -28.73481 -50.48511 28015 ft 470 kts 213°
2026-04-20 20:27 -28.79115 -50.52274 28016 ft 470 kts 213°
2026-04-20 20:28 -28.84772 -50.56059 28018 ft 471 kts 213°
2026-04-20 20:28 -28.90423 -50.59842 28006 ft 471 kts 213°
2026-04-20 20:29 -28.96074 -50.63631 28007 ft 471 kts 213°
2026-04-20 20:29 -29.01657 -50.67379 28004 ft 471 kts 213°
2026-04-20 20:30 -29.07306 -50.71177 28012 ft 471 kts 213°
2026-04-20 20:30 -29.12953 -50.74978 28011 ft 471 kts 213°
2026-04-20 20:31 -29.15779 -50.76882 27999 ft 471 kts 213°
2026-04-20 20:31 -29.18604 -50.78787 28009 ft 471 kts 213°
2026-04-20 20:31 -29.24241 -50.82591 28014 ft 470 kts 214°
2026-04-20 20:32 -29.29888 -50.86407 28010 ft 470 kts 214°
2026-04-20 20:32 -29.35489 -50.90197 28009 ft 471 kts 214°
2026-04-20 20:33 -29.41124 -50.94014 28001 ft 470 kts 214°
2026-04-20 20:33 -29.46756 -50.97835 28002 ft 470 kts 214°
2026-04-20 20:34 -29.49571 -50.99747 27993 ft 470 kts 214°
2026-04-20 20:34 -29.52386 -51.01660 27982 ft 470 kts 214°
2026-04-20 20:34 -29.55201 -51.03573 27984 ft 470 kts 214°
2026-04-20 20:34 -29.58015 -51.05487 27986 ft 469 kts 214°
2026-04-20 20:35 -29.60824 -51.07400 27984 ft 469 kts 214°
2026-04-20 20:35 -29.63577 -51.09275 27982 ft 469 kts 214°
2026-04-20 20:35 -29.66385 -51.11189 27976 ft 469 kts 214°
2026-04-20 20:35 -29.69195 -51.13107 27979 ft 469 kts 214°
2026-04-20 20:36 -29.72002 -51.15023 27973 ft 469 kts 214°
2026-04-20 20:36 -29.74811 -51.16942 27968 ft 469 kts 214°
2026-04-20 20:36 -29.77616 -51.18860 27979 ft 469 kts 214°
2026-04-20 20:36 -29.80051 -51.20524 27974 ft 469 kts 214°
2026-04-20 20:37 -29.82864 -51.22449 27972 ft 470 kts 214°
2026-04-20 20:37 -29.85679 -51.24377 27971 ft 470 kts 214°
2026-04-20 20:37 -29.88454 -51.26279 27970 ft 470 kts 214°
2026-04-20 20:37 -29.91266 -51.28207 27971 ft 470 kts 214°
2026-04-20 20:38 -29.94074 -51.30134 27971 ft 471 kts 214°
2026-04-20 20:38 -29.96885 -51.32064 27970 ft 471 kts 214°
2026-04-20 20:38 -29.99702 -51.33999 27972 ft 471 kts 215°
2026-04-20 20:38 -30.02525 -51.35940 27974 ft 471 kts 215°
2026-04-20 20:39 -30.05343 -51.37879 27972 ft 472 kts 215°
2026-04-20 20:39 -30.08160 -51.39818 27972 ft 472 kts 215°
2026-04-20 20:39 -30.10984 -51.41764 27977 ft 472 kts 215°
2026-04-20 20:39 -30.13805 -51.43709 27983 ft 472 kts 215°
2026-04-20 20:40 -30.16627 -51.45655 27982 ft 473 kts 215°
2026-04-20 20:40 -30.19449 -51.47603 27982 ft 473 kts 215°
2026-04-20 20:40 -30.22274 -51.49555 27990 ft 473 kts 215°
2026-04-20 20:40 -30.25097 -51.51506 27985 ft 473 kts 215°
2026-04-20 20:41 -30.27930 -51.53466 27991 ft 473 kts 215°
2026-04-20 20:41 -30.30754 -51.55420 28003 ft 473 kts 215°
2026-04-20 20:41 -30.33581 -51.57378 27999 ft 474 kts 215°
2026-04-20 20:41 -30.36410 -51.59339 27991 ft 474 kts 215°
2026-04-20 20:42 -30.39241 -51.61302 27991 ft 474 kts 215°
2026-04-20 20:42 -30.42068 -51.63265 28001 ft 474 kts 215°
2026-04-20 20:42 -30.44895 -51.65228 27996 ft 474 kts 215°
2026-04-20 20:42 -30.47716 -51.67189 27997 ft 473 kts 215°
2026-04-20 20:43 -30.53331 -51.71095 28011 ft 473 kts 215°
2026-04-20 20:43 -30.58979 -51.75030 27998 ft 474 kts 215°
2026-04-20 20:44 -30.64623 -51.78967 28015 ft 474 kts 215°
2026-04-20 20:44 -30.67463 -51.80951 27588 ft 478 kts 215°
2026-04-20 20:44 -30.70322 -51.82951 26782 ft 477 kts 215°
2026-04-20 20:45 -30.73170 -51.84943 25807 ft 478 kts 214°
2026-04-20 20:45 -30.76024 -51.86940 24885 ft 479 kts 214°
2026-04-20 20:45 -30.78860 -51.88925 24121 ft 475 kts 214°
2026-04-20 20:45 -30.81683 -51.90902 23305 ft 472 kts 214°
2026-04-20 20:46 -30.84485 -51.92866 22466 ft 468 kts 214°
2026-04-20 20:46 -30.87261 -51.94811 21693 ft 462 kts 214°
2026-04-20 20:46 -30.89999 -51.96733 20944 ft 457 kts 214°
2026-04-20 20:46 -30.92703 -51.98632 20220 ft 451 kts 214°
2026-04-20 20:47 -30.95364 -52.00503 19478 ft 446 kts 214°
2026-04-20 20:47 -30.97983 -52.02346 18758 ft 442 kts 214°
2026-04-20 20:47 -30.99763 -52.03599 18251 ft 440 kts 214°
2026-04-20 20:47 -31.03189 -52.06013 17214 ft 433 kts 214°
2026-04-20 20:48 -31.05761 -52.07827 16485 ft 428 kts 214°
2026-04-20 20:48 -31.08291 -52.09611 15761 ft 423 kts 214°
2026-04-20 20:48 -31.10797 -52.11380 15060 ft 418 kts 214°
2026-04-20 20:48 -31.13273 -52.13129 14344 ft 414 kts 214°
2026-04-20 20:49 -31.14940 -52.14308 13868 ft 412 kts 214°
2026-04-20 20:49 -31.17377 -52.16032 13115 ft 408 kts 214°
2026-04-20 20:49 -31.19755 -52.17713 12409 ft 404 kts 214°
2026-04-20 20:49 -31.22147 -52.19408 11726 ft 400 kts 214°
2026-04-20 20:50 -31.24510 -52.21081 11292 ft 390 kts 214°
2026-04-20 20:50 -31.26777 -52.22685 11094 ft 375 kts 214°
2026-04-20 20:50 -31.28964 -52.24233 10931 ft 360 kts 214°
2026-04-20 20:50 -31.31066 -52.25724 10778 ft 347 kts 214°
2026-04-20 20:51 -31.33088 -52.27158 10641 ft 335 kts 214°
2026-04-20 20:51 -31.35057 -52.28557 10499 ft 324 kts 214°
2026-04-20 20:51 -31.36943 -52.29898 10363 ft 313 kts 214°
2026-04-20 20:51 -31.38772 -52.31199 10235 ft 304 kts 214°
2026-04-20 20:52 -31.40547 -52.32461 10109 ft 295 kts 214°
2026-04-20 20:52 -31.42284 -52.33699 9863 ft 291 kts 214°
2026-04-20 20:52 -31.44012 -52.34932 9551 ft 289 kts 214°
2026-04-20 20:52 -31.45729 -52.36156 9257 ft 288 kts 214°
2026-04-20 20:53 -31.47439 -52.37376 8943 ft 287 kts 214°
2026-04-20 20:53 -31.49136 -52.38587 8629 ft 286 kts 214°
2026-04-20 20:53 -31.50830 -52.39795 8339 ft 284 kts 213°
2026-04-20 20:53 -31.52494 -52.40982 8047 ft 283 kts 213°
2026-04-20 20:54 -31.54176 -52.42183 7752 ft 282 kts 213°
2026-04-20 20:54 -31.55853 -52.43381 7447 ft 281 kts 213°
2026-04-20 20:54 -31.57520 -52.44573 7145 ft 281 kts 213°
2026-04-20 20:54 -31.59189 -52.45765 6849 ft 280 kts 213°
2026-04-20 20:55 -31.60850 -52.46953 6537 ft 281 kts 213°
2026-04-20 20:55 -31.62522 -52.48149 6202 ft 281 kts 213°
2026-04-20 20:55 -31.64182 -52.49336 5892 ft 279 kts 213°
2026-04-20 20:55 -31.65837 -52.50522 5581 ft 278 kts 213°
2026-04-20 20:56 -31.67482 -52.51701 5302 ft 276 kts 212°
2026-04-20 20:56 -31.69119 -52.52874 5020 ft 275 kts 212°
2026-04-20 20:56 -31.70748 -52.54041 4746 ft 273 kts 212°
2026-04-20 20:56 -31.72352 -52.55191 4470 ft 267 kts 212°
2026-04-20 20:57 -31.73918 -52.56315 4178 ft 258 kts 211°
2026-04-20 20:57 -31.75466 -52.57274 3911 ft 247 kts 195°
2026-04-20 20:57 -31.77097 -52.57284 3806 ft 227 kts 162°
2026-04-20 20:57 -31.78409 -52.56509 3792 ft 205 kts 141°
2026-04-20 20:58 -31.79382 -52.55337 3772 ft 197 kts 122°
2026-04-20 20:58 -31.80109 -52.53993 3692 ft 194 kts 118°
2026-04-20 20:58 -31.80804 -52.52637 3629 ft 194 kts 118°
2026-04-20 20:58 -31.81508 -52.51261 3479 ft 199 kts 118°
2026-04-20 20:59 -31.82174 -52.49854 3247 ft 192 kts 107°
2026-04-20 20:59 -31.82153 -52.48400 3062 ft 171 kts 60°
2026-04-20 20:59 -31.81444 -52.47393 2897 ft 154 kts 49°
2026-04-20 20:59 -31.80909 -52.46382 2770 ft 136 kts 62°
2026-04-20 21:00 -31.80408 -52.45471 2658 ft 133 kts 53°
2026-04-20 21:00 -31.79835 -52.44627 2496 ft 132 kts 52°
2026-04-20 21:00 -31.79253 -52.43778 2322 ft 134 kts 52°
2026-04-20 21:00 -31.78671 -52.42931 2138 ft 131 kts 53°
2026-04-20 21:01 -31.78102 -52.42101 1970 ft 130 kts 53°
2026-04-20 21:01 -31.77529 -52.41264 1804 ft 132 kts 54°
2026-04-20 21:01 -31.76966 -52.40443 1616 ft 130 kts 54°
2026-04-20 21:01 -31.76391 -52.39603 1442 ft 131 kts 54°
2026-04-20 21:02 -31.75826 -52.38781 1275 ft 131 kts 55°
2026-04-20 21:02 -31.75246 -52.37932 1100 ft 135 kts 54°
2026-04-20 21:02 -31.74657 -52.37074 925 ft 132 kts 53°
2026-04-20 21:02 -31.74086 -52.36240 749 ft 134 kts 54°
2026-04-20 21:03 -31.73500 -52.35384 569 ft 133 kts 53°
2026-04-20 21:03 -31.72924 -52.34551 335 ft 134 kts 54°
2026-04-20 21:03 -31.72337 -52.33687 150 ft 137 kts 53°
2026-04-20 21:03 -31.71770 -52.32860 62 ft 99 kts 51°
2026-04-20 21:04 -31.71555 -52.32547 57 ft 24 kts 51°
2026-04-20 21:04 -31.71497 -52.32435 61 ft 3 kts 40°
2026-04-20 21:04 -31.71484 -52.32437 59 ft 1 kts 324°
2026-04-20 21:04 -31.71484 -52.32448 59 ft 2 kts 261°
2026-04-20 21:05 -31.71503 -52.32476 54 ft 8 kts 227°
2026-04-20 21:05 -31.71557 -52.32549 59 ft 15 kts 230°
2026-04-20 21:05 -31.71638 -52.32665 63 ft 21 kts 231°
2026-04-20 21:05 -31.71738 -52.32809 59 ft 23 kts 231°
2026-04-20 21:06 -31.71801 -52.32945 61 ft 12 kts 283°
2026-04-20 21:06 -31.71750 -52.33012 62 ft 11 kts 317°
2026-04-20 21:06 -31.71693 -52.33056 62 ft 9 kts 339°
2026-04-20 21:06 -31.71639 -52.33057 63 ft 6 kts 13°
2026-04-20 21:07 -31.71609 -52.33040 65 ft 0 kts 40°